{"data":{"norad_id":66756,"epoch":"2026-09-20T10:35:15.241632Z","epoch_age_seconds":122705,"freshness":"FRESH","line1":"1 66756U 25276CU  26263.44114863  .00004166  00000+0  18718-3 0  9996","line2":"2 66756  97.4126 335.7505 0001745  36.6122 323.5233 15.21692985 44913","mean_motion":15.21692985,"eccentricity":0.0001745,"inclination_deg":97.4126,"raan_deg":335.7505,"arg_perigee_deg":36.6122,"mean_anomaly_deg":323.5233,"bstar":0.00018718,"rev_number":4491,"period_min":94.631441045908,"perigee_km":499.53338053835,"apogee_km":501.93410642783,"semimajor_km":6878.8707434831,"source":"CELESTRAK","updated_at":"2026-09-21T09:00:16.181386Z"}}